User: anonymous   Login
Location: Unspecified
(0.0000°N, 0.0000°E)
Time: 22:17:40
(UTC+00:00)
Language:

RAX-2 - Orbit

View from above orbital plane
View from above orbital plane
View from above satellite
View from above satellite

Ground track
Ground track

The orbit data is extracted from the following two-line orbital elements,

1 37853U 11061D   16337.22698589  .00001909  00000-0  11643-3 0  9991
2 37853 101.7082  98.7715 0178767 309.0440  49.4975 15.00612913277091
Epoch (UTC): 02 December 2016 05:26:51
Eccentricity: 0.0178767
inclination: 101.7082°
perigee height: 441 km
apogee height: 689 km
right ascension of ascending node: 98.7715°
argument of perigee: 309.0440°
revolutions per day: 15.00612913
mean anomaly at epoch: 49.4975°
orbit number at epoch: 27709

The dashed part of the orbit path shows where the satellite is in the earth's shadow,  

DLR